Time,TemperatureF,DewpointF,PressureIn,WindDirection,WindDirectionDegrees,WindSpeedMPH,WindSpeedGustMPH,Humidity,HourlyPrecipIn,Conditions,Clouds,dailyrainin,SoftwareType,DateUTC
2013-02-02 00:00:00,43.0,40.0,-100.00,South,186,4.0,-999.0,92,0.00,,,-99.99,,2013-02-02 08:00:00,
2013-02-02 00:21:00,43.0,40.0,-100.00,South,186,4.0,-999.0,92,0.00,,,-99.99,,2013-02-02 08:21:00,
2013-02-02 00:32:00,43.0,40.0,-100.00,South,186,4.0,-999.0,92,0.00,,,-99.99,,2013-02-02 08:32:00,
2013-02-02 00:42:00,43.0,40.0,-100.00,South,186,4.0,-999.0,92,0.00,,,-99.99,,2013-02-02 08:42:00,
2013-02-02 00:53:00,43.0,40.0,-100.00,South,186,4.0,-999.0,92,0.00,,,-99.99,,2013-02-02 08:53:00,
2013-02-02 01:00:00,42.0,40.0,-100.00,SSE,162,0.0,-999.0,92,0.00,,,-99.99,,2013-02-02 09:00:00,
2013-02-02 01:22:00,42.0,40.0,-100.00,SSE,162,0.0,-999.0,92,0.00,,,-99.99,,2013-02-02 09:22:00,
2013-02-02 01:32:00,42.0,40.0,-100.00,SSE,162,0.0,-999.0,92,0.00,,,-99.99,,2013-02-02 09:32:00,
2013-02-02 01:42:00,42.0,40.0,-100.00,SSE,162,0.0,-999.0,92,0.00,,,-99.99,,2013-02-02 09:42:00,
2013-02-02 01:52:00,42.0,40.0,-100.00,SSE,162,0.0,-999.0,92,0.00,,,-99.99,,2013-02-02 09:52:00,
2013-02-02 02:00:00,41.0,39.0,-100.00,North,357,1.0,-999.0,92,0.00,,,-99.99,,2013-02-02 10:00:00,
2013-02-02 02:21:00,41.0,39.0,-100.00,North,357,1.0,-999.0,92,0.00,,,-99.99,,2013-02-02 10:21:00,
2013-02-02 02:32:00,41.0,39.0,-100.00,North,357,1.0,-999.0,92,0.00,,,-99.99,,2013-02-02 10:32:00,
2013-02-02 02:42:00,41.0,39.0,-100.00,North,357,1.0,-999.0,92,0.00,,,-99.99,,2013-02-02 10:42:00,
2013-02-02 02:52:00,41.0,39.0,-100.00,North,357,1.0,-999.0,92,0.00,,,-99.99,,2013-02-02 10:52:00,
2013-02-02 03:00:00,40.0,39.0,-100.00,SSE,158,2.0,-999.0,94,0.00,,,-99.99,,2013-02-02 11:00:00,
2013-02-02 03:22:00,40.0,39.0,-100.00,SSE,158,2.0,-999.0,94,0.00,,,-99.99,,2013-02-02 11:22:00,
2013-02-02 03:32:00,40.0,39.0,-100.00,SSE,158,2.0,-999.0,94,0.00,,,-99.99,,2013-02-02 11:32:00,
2013-02-02 03:42:00,40.0,39.0,-100.00,SSE,158,2.0,-999.0,94,0.00,,,-99.99,,2013-02-02 11:42:00,
2013-02-02 03:52:00,40.0,39.0,-100.00,SSE,158,2.0,-999.0,94,0.00,,,-99.99,,2013-02-02 11:52:00,
2013-02-02 04:00:00,40.0,39.0,-100.00,North,353,1.0,-999.0,95,0.00,,,-99.99,,2013-02-02 12:00:00,
2013-02-02 04:22:00,40.0,39.0,-100.00,North,353,1.0,-999.0,95,0.00,,,-99.99,,2013-02-02 12:22:00,
2013-02-02 04:32:00,40.0,39.0,-100.00,North,353,1.0,-999.0,95,0.00,,,-99.99,,2013-02-02 12:32:00,
2013-02-02 04:42:00,40.0,39.0,-100.00,North,353,1.0,-999.0,95,0.00,,,-99.99,,2013-02-02 12:42:00,
2013-02-02 04:52:00,40.0,39.0,-100.00,North,353,1.0,-999.0,95,0.00,,,-99.99,,2013-02-02 12:52:00,
2013-02-02 05:00:00,38.0,37.0,-100.00,South,176,4.0,-999.0,95,0.00,,,-99.99,,2013-02-02 13:00:00,
2013-02-02 05:22:00,38.0,37.0,-100.00,South,176,4.0,-999.0,95,0.00,,,-99.99,,2013-02-02 13:22:00,
2013-02-02 05:33:00,38.0,37.0,-100.00,South,176,4.0,-999.0,95,0.00,,,-99.99,,2013-02-02 13:33:00,
2013-02-02 05:42:00,38.0,37.0,-100.00,South,176,4.0,-999.0,95,0.00,,,-99.99,,2013-02-02 13:42:00,
2013-02-02 05:52:00,38.0,37.0,-100.00,South,176,4.0,-999.0,95,0.00,,,-99.99,,2013-02-02 13:52:00,
2013-02-02 06:00:00,38.0,37.0,-100.00,NNW,334,5.0,-999.0,95,0.00,,,-99.99,,2013-02-02 14:00:00,
2013-02-02 06:22:00,38.0,37.0,-100.00,NNW,334,5.0,-999.0,95,0.00,,,-99.99,,2013-02-02 14:22:00,
2013-02-02 06:33:00,38.0,37.0,-100.00,NNW,334,5.0,-999.0,95,0.00,,,-99.99,,2013-02-02 14:33:00,
2013-02-02 06:42:00,38.0,37.0,-100.00,NNW,334,5.0,-999.0,95,0.00,,,-99.99,,2013-02-02 14:42:00,
2013-02-02 06:52:00,38.0,37.0,-100.00,NNW,334,5.0,-999.0,95,0.00,,,-99.99,,2013-02-02 14:52:00,
2013-02-02 07:00:00,38.0,37.0,-100.00,NNW,344,2.0,-999.0,95,0.00,,,-99.99,,2013-02-02 15:00:00,
2013-02-02 07:22:00,38.0,37.0,-100.00,NNW,344,2.0,-999.0,95,0.00,,,-99.99,,2013-02-02 15:22:00,
2013-02-02 07:33:00,38.0,37.0,-100.00,NNW,344,2.0,-999.0,95,0.00,,,-99.99,,2013-02-02 15:33:00,
2013-02-02 07:42:00,38.0,37.0,-100.00,NNW,344,2.0,-999.0,95,0.00,,,-99.99,,2013-02-02 15:42:00,
2013-02-02 07:52:00,38.0,37.0,-100.00,NNW,344,2.0,-999.0,95,0.00,,,-99.99,,2013-02-02 15:52:00,
2013-02-02 08:00:00,39.0,38.0,-100.00,East,82,0.0,-999.0,95,0.00,,,-99.99,,2013-02-02 16:00:00,
2013-02-02 08:23:00,39.0,38.0,-100.00,East,82,0.0,-999.0,95,0.00,,,-99.99,,2013-02-02 16:23:00,
2013-02-02 08:32:00,39.0,38.0,-100.00,East,82,0.0,-999.0,95,0.00,,,-99.99,,2013-02-02 16:32:00,
2013-02-02 08:42:00,39.0,38.0,-100.00,East,82,0.0,-999.0,95,0.00,,,-99.99,,2013-02-02 16:42:00,
2013-02-02 08:52:00,39.0,38.0,-100.00,East,82,0.0,-999.0,95,0.00,,,-99.99,,2013-02-02 16:52:00,
2013-02-02 09:00:00,39.0,38.0,-100.00,SSE,160,2.0,-999.0,95,0.00,,,-99.99,,2013-02-02 17:00:00,
2013-02-02 09:23:00,39.0,38.0,-100.00,SSE,160,2.0,-999.0,95,0.00,,,-99.99,,2013-02-02 17:23:00,
2013-02-02 09:33:00,39.0,38.0,-100.00,SSE,160,2.0,-999.0,95,0.00,,,-99.99,,2013-02-02 17:33:00,
2013-02-02 09:42:00,39.0,38.0,-100.00,SSE,160,2.0,-999.0,95,0.00,,,-99.99,,2013-02-02 17:42:00,
2013-02-02 09:52:00,39.0,38.0,-100.00,SSE,160,2.0,-999.0,95,0.00,,,-99.99,,2013-02-02 17:52:00,
2013-02-02 10:00:00,39.0,38.0,-100.00,SSW,195,4.0,-999.0,95,0.00,,,-99.99,,2013-02-02 18:00:00,
2013-02-02 10:22:00,39.0,38.0,-100.00,SSW,195,4.0,-999.0,95,0.00,,,-99.99,,2013-02-02 18:22:00,
2013-02-02 10:32:00,39.0,38.0,-100.00,SSW,195,4.0,-999.0,95,0.00,,,-99.99,,2013-02-02 18:32:00,
2013-02-02 10:42:00,39.0,38.0,-100.00,SSW,195,4.0,-999.0,95,0.00,,,-99.99,,2013-02-02 18:42:00,
2013-02-02 10:52:00,39.0,38.0,-100.00,SSW,195,4.0,-999.0,95,0.00,,,-99.99,,2013-02-02 18:52:00,
2013-02-02 11:00:00,43.0,41.0,-100.00,SSW,201,9.0,-999.0,95,0.00,,,-99.99,,2013-02-02 19:00:00,
2013-02-02 11:22:00,43.0,41.0,-100.00,SSW,201,9.0,-999.0,95,0.00,,,-99.99,,2013-02-02 19:22:00,
2013-02-02 11:32:00,43.0,41.0,-100.00,SSW,201,9.0,-999.0,95,0.00,,,-99.99,,2013-02-02 19:32:00,
2013-02-02 11:42:00,43.0,41.0,-100.00,SSW,201,9.0,-999.0,95,0.00,,,-99.99,,2013-02-02 19:42:00,
2013-02-02 11:52:00,43.0,41.0,-100.00,SSW,201,9.0,-999.0,95,0.00,,,-99.99,,2013-02-02 19:52:00,
2013-02-02 12:00:00,46.0,44.0,-100.00,SSE,147,2.0,-999.0,94,0.00,,,-99.99,,2013-02-02 20:00:00,
2013-02-02 12:22:00,46.0,44.0,-100.00,SSE,147,2.0,-999.0,94,0.00,,,-99.99,,2013-02-02 20:22:00,
2013-02-02 12:32:00,46.0,44.0,-100.00,SSE,147,2.0,-999.0,94,0.00,,,-99.99,,2013-02-02 20:32:00,
2013-02-02 12:42:00,46.0,44.0,-100.00,SSE,147,2.0,-999.0,94,0.00,,,-99.99,,2013-02-02 20:42:00,
2013-02-02 12:52:00,46.0,44.0,-100.00,SSE,147,2.0,-999.0,94,0.00,,,-99.99,,2013-02-02 20:52:00,
2013-02-02 13:00:00,48.0,46.0,-100.00,NW,322,1.0,-999.0,91,0.00,,,-99.99,,2013-02-02 21:00:00,
2013-02-02 13:22:00,48.0,46.0,-100.00,NW,322,1.0,-999.0,91,0.00,,,-99.99,,2013-02-02 21:22:00,
2013-02-02 13:32:00,48.0,46.0,-100.00,NW,322,1.0,-999.0,91,0.00,,,-99.99,,2013-02-02 21:32:00,
2013-02-02 13:42:00,48.0,46.0,-100.00,NW,322,1.0,-999.0,91,0.00,,,-99.99,,2013-02-02 21:42:00,
2013-02-02 13:52:00,48.0,46.0,-100.00,NW,322,1.0,-999.0,91,0.00,,,-99.99,,2013-02-02 21:52:00,
2013-02-02 14:00:00,52.0,47.0,-100.00,NW,312,2.0,-999.0,82,0.00,,,-99.99,,2013-02-02 22:00:00,
2013-02-02 14:22:00,52.0,47.0,-100.00,NW,312,2.0,-999.0,82,0.00,,,-99.99,,2013-02-02 22:22:00,
2013-02-02 14:32:00,52.0,47.0,-100.00,NW,312,2.0,-999.0,82,0.00,,,-99.99,,2013-02-02 22:32:00,
2013-02-02 14:42:00,52.0,47.0,-100.00,NW,312,2.0,-999.0,82,0.00,,,-99.99,,2013-02-02 22:42:00,
2013-02-02 14:52:00,52.0,47.0,-100.00,NW,312,2.0,-999.0,82,0.00,,,-99.99,,2013-02-02 22:52:00,
2013-02-02 15:00:00,53.0,45.0,-100.00,North,354,2.0,-999.0,73,0.00,,,-99.99,,2013-02-02 23:00:00,
2013-02-02 15:22:00,53.0,45.0,-100.00,North,354,2.0,-999.0,73,0.00,,,-99.99,,2013-02-02 23:22:00,
2013-02-02 15:32:00,53.0,45.0,-100.00,North,354,2.0,-999.0,73,0.00,,,-99.99,,2013-02-02 23:32:00,
2013-02-02 15:42:00,53.0,45.0,-100.00,North,354,2.0,-999.0,73,0.00,,,-99.99,,2013-02-02 23:42:00,
2013-02-02 15:52:00,53.0,45.0,-100.00,North,354,2.0,-999.0,73,0.00,,,-99.99,,2013-02-02 23:52:00,
2013-02-02 16:00:00,55.0,46.0,-100.00,NW,325,3.0,-999.0,73,0.00,,,-99.99,,2013-02-03 00:00:00,
2013-02-02 16:22:00,55.0,46.0,-100.00,NW,325,3.0,-999.0,73,0.00,,,-99.99,,2013-02-03 00:22:00,
2013-02-02 16:32:00,55.0,46.0,-100.00,NW,325,3.0,-999.0,73,0.00,,,-99.99,,2013-02-03 00:32:00,
2013-02-02 16:42:00,55.0,46.0,-100.00,NW,325,3.0,-999.0,73,0.00,,,-99.99,,2013-02-03 00:42:00,
2013-02-02 16:52:00,55.0,46.0,-100.00,NW,325,3.0,-999.0,73,0.00,,,-99.99,,2013-02-03 00:52:00,
2013-02-02 17:00:00,52.0,45.0,-100.00,NW,324,2.0,-999.0,76,0.00,,,-99.99,,2013-02-03 01:00:00,
2013-02-02 17:21:00,52.0,45.0,-100.00,NW,324,2.0,-999.0,76,0.00,,,-99.99,,2013-02-03 01:21:00,
2013-02-02 17:32:00,52.0,45.0,-100.00,NW,324,2.0,-999.0,76,0.00,,,-99.99,,2013-02-03 01:32:00,
2013-02-02 17:42:00,52.0,45.0,-100.00,NW,324,2.0,-999.0,76,0.00,,,-99.99,,2013-02-03 01:42:00,
2013-02-02 17:52:00,52.0,45.0,-100.00,NW,324,2.0,-999.0,76,0.00,,,-99.99,,2013-02-03 01:52:00,
2013-02-02 18:00:00,48.0,44.0,-100.00,North,351,2.0,-999.0,84,0.00,,,-99.99,,2013-02-03 02:00:00,
2013-02-02 18:21:00,48.0,44.0,-100.00,North,351,2.0,-999.0,84,0.00,,,-99.99,,2013-02-03 02:21:00,
2013-02-02 18:32:00,48.0,44.0,-100.00,North,351,2.0,-999.0,84,0.00,,,-99.99,,2013-02-03 02:32:00,
2013-02-02 18:42:00,48.0,44.0,-100.00,North,351,2.0,-999.0,84,0.00,,,-99.99,,2013-02-03 02:42:00,
2013-02-02 18:52:00,48.0,44.0,-100.00,North,351,2.0,-999.0,84,0.00,,,-99.99,,2013-02-03 02:52:00,
2013-02-02 19:00:00,45.0,42.0,-100.00,North,350,4.0,-999.0,88,0.00,,,-99.99,,2013-02-03 03:00:00,
2013-02-02 19:22:00,45.0,42.0,-100.00,North,350,4.0,-999.0,88,0.00,,,-99.99,,2013-02-03 03:22:00,
2013-02-02 19:32:00,45.0,42.0,-100.00,North,350,4.0,-999.0,88,0.00,,,-99.99,,2013-02-03 03:32:00,
2013-02-02 19:42:00,45.0,42.0,-100.00,North,350,4.0,-999.0,88,0.00,,,-99.99,,2013-02-03 03:42:00,
2013-02-02 19:52:00,45.0,42.0,-100.00,North,350,4.0,-999.0,88,0.00,,,-99.99,,2013-02-03 03:52:00,
2013-02-02 20:00:00,44.0,42.0,-100.00,NNW,341,2.0,-999.0,92,0.00,,,-99.99,,2013-02-03 04:00:00,
2013-02-02 20:22:00,44.0,42.0,-100.00,NNW,341,2.0,-999.0,92,0.00,,,-99.99,,2013-02-03 04:22:00,
2013-02-02 20:32:00,44.0,42.0,-100.00,NNW,341,2.0,-999.0,92,0.00,,,-99.99,,2013-02-03 04:32:00,
2013-02-02 20:42:00,44.0,42.0,-100.00,NNW,341,2.0,-999.0,92,0.00,,,-99.99,,2013-02-03 04:42:00,
2013-02-02 20:52:00,44.0,42.0,-100.00,NNW,341,2.0,-999.0,92,0.00,,,-99.99,,2013-02-03 04:52:00,
2013-02-02 21:00:00,43.0,42.0,-100.00,North,357,1.0,-999.0,93,0.00,,,-99.99,,2013-02-03 05:00:00,
2013-02-02 21:22:00,43.0,42.0,-100.00,North,357,1.0,-999.0,93,0.00,,,-99.99,,2013-02-03 05:22:00,
2013-02-02 21:32:00,43.0,42.0,-100.00,North,357,1.0,-999.0,93,0.00,,,-99.99,,2013-02-03 05:32:00,
2013-02-02 21:42:00,43.0,42.0,-100.00,North,357,1.0,-999.0,93,0.00,,,-99.99,,2013-02-03 05:42:00,
2013-02-02 21:52:00,43.0,42.0,-100.00,North,357,1.0,-999.0,93,0.00,,,-99.99,,2013-02-03 05:52:00,
2013-02-02 22:00:00,43.0,42.0,-100.00,South,190,1.0,-999.0,93,0.00,,,-99.99,,2013-02-03 06:00:00,
2013-02-02 22:21:00,43.0,42.0,-100.00,South,190,1.0,-999.0,93,0.00,,,-99.99,,2013-02-03 06:21:00,
2013-02-02 22:32:00,43.0,42.0,-100.00,South,190,1.0,-999.0,93,0.00,,,-99.99,,2013-02-03 06:32:00,
2013-02-02 22:42:00,43.0,42.0,-100.00,South,190,1.0,-999.0,93,0.00,,,-99.99,,2013-02-03 06:42:00,
2013-02-02 22:52:00,43.0,42.0,-100.00,South,190,1.0,-999.0,93,0.00,,,-99.99,,2013-02-03 06:52:00,
2013-02-02 23:00:00,44.0,42.0,-100.00,North,5,1.0,-999.0,92,0.00,,,-99.99,,2013-02-03 07:00:00,
2013-02-02 23:21:00,44.0,42.0,-100.00,North,5,1.0,-999.0,92,0.00,,,-99.99,,2013-02-03 07:21:00,
2013-02-02 23:32:00,44.0,42.0,-100.00,North,5,1.0,-999.0,92,0.00,,,-99.99,,2013-02-03 07:32:00,
2013-02-02 23:42:00,44.0,42.0,-100.00,North,5,1.0,-999.0,92,0.00,,,-99.99,,2013-02-03 07:42:00,
2013-02-02 23:52:00,44.0,42.0,-100.00,North,5,1.0,-999.0,92,0.00,,,-99.99,,2013-02-03 07:52:00,